Location: Unspecified
(0.0000°N, 0.0000°E)
Time: 12:04:04
(UTC+02:00)

Palapa 6 Rocket - Visible Passes

Search period start: 31 May 2016 00:00
Search period end: 10 June 2016 00:00
Orbit: 485 x 1222 km, 22.7° (Epoch: 29 May)

Date Brightness Start Highest point End Pass type
(mag) Time Alt. Az. Time Alt. Az. Time Alt. Az.
31 May 4.3 05:57:44 32° NE 05:57:44 32° NE 05:59:59 10° ENE visible
31 May 6.0 20:28:54 10° WSW 20:34:17 20° SSW 20:39:15 10° SSE visible
01 Jun 5.1 05:44:48 20° NE 05:44:48 20° NE 05:46:08 10° NE visible
01 Jun 5.1 07:29:33 10° NW 07:31:05 12° NNW 07:32:39 10° N visible
01 Jun 6.1 20:15:05 10° WSW 20:20:19 19° SSW 20:25:13 10° SSE visible
02 Jun 5.7 05:31:51 12° NE 05:31:51 12° NE 05:32:15 10° NE visible
04 Jun 6.2 21:28:13 10° SSW 21:29:20 10° S 21:30:26 10° S visible
05 Jun 6.2 21:13:38 10° SSW 21:15:30 11° S 21:17:20 10° SSE visible
06 Jun 6.2 20:59:12 10° SSW 21:01:39 12° S 21:04:03 10° SSE visible
07 Jun 6.2 20:44:51 10° SSW 20:47:48 12° S 20:50:40 10° SSE visible
08 Jun 6.1 20:30:32 10° SSW 20:33:55 13° S 20:37:14 10° SSE visible
08 Jun 6.2 22:19:15 10° SSW 22:20:51 14° SSW 22:20:51 14° SSW visible
09 Jun 5.9 22:04:48 10° SSW 22:08:04 19° SSW 22:08:04 19° SSW visible
